Location: ??????
(42.0089°N, 44.3281°E)
Time: 18:02:04
(UTC+00:00)

USA 267 - Pass Details

Date: 31 May 2022
Orbit: 1101 x 1106 km, 123.0° (Epoch: 28 June)

Event Time Altitude Azimuth Distance (km) Brightness Sun altitude
Exits shadow 22:16:19 15° 137° (SE) 2,602 5.0 -23.6°
Maximum altitude 22:21:55 79° 223° (SW) 1,123 3.1 -23.3°
Drops below altitude 10° 22:28:29 10° 310° (NW) 2,964 5.7 -22.8°
Sets 22:30:59 0° 312° (NW) 3,924 6.4 -22.6°
